Change the Weather History Date:

Sunday, May 25, 2014

  Actual Average Record
Temperature  
Mean Temperature 65 °F 58 °F  
Max Temperature 80 °F 69 °F 88 °F (1911)
Min Temperature 49 °F 47 °F 32 °F (1988)
Degree Days  
Heating Degree Days 0 8  
Month to date heating degree days 262 284  
Since 1 July heating degree days 8733 7821  
Cooling Degree Days 0 1  
Month to date cooling degree days 0 8  
Year to date cooling degree days 0 10  
Growing Degree Days 14 (Base 50)    
Moisture  
Dew Point 49 °F    
Average Humidity 61    
Maximum Humidity 86    
Minimum Humidity 35    
Precipitation  
Precipitation 0.00 in 0.11 in 1.54 in (1957)
Month to date precipitation 2.47 2.25  
Year to date precipitation 10.18 8.97  
Snow  
Snow 0.00 in 0.00 in 0.00 in ()
Month to date snowfall 0.0 0.2  
Since 1 July snowfall 72.1 51.4  
Snow Depth 0.00 in    
Sea Level Pressure  
Sea Level Pressure 30.07 in    
Wind  
Wind Speed 7 mph (SSW)    
Max Wind Speed 16 mph    
Max Gust Speed 21 mph    
Visibility 10 miles    
Events      
T = Trace of Precipitation, MM = Missing Value Source: NWS Daily Summary

Daily Weather History Graph

Daily Weather History Graph

Search for Another Location

Airport or City:

Trip Planner

Search our weather history database for the weather conditions in past years. The results will help you decide how hot, cold, wet, or windy it might be!

Date:

Astronomy

May. 25, 2014 Rise Set
Actual Time 5:15 AM CDT 8:23 PM CDT
Civil Twilight 4:40 AM CDT 8:59 PM CDT
Nautical Twilight 3:55 AM CDT 9:44 PM CDT
Astronomical Twilight 3:00 AM CDT 10:39 PM CDT
Moon 3:28 AM CDT (5/25) 5:17 PM CDT (5/25)
Length of Visible Light 16h 18m
Length of Day
15h 08m
Waning Crescent, 10% of the Moon is Illuminated
May 25
Waning Crescent
May 28
New
Jun 5
First Quarter
Jun 12
Full
Jun 19
Last Quarter

Hourly Weather History & Observations

Time (CDT) Temp. Dew Point Humidity Pressure Visibility Wind Dir Wind Speed Gust Speed Precip Events Conditions
12:53 AM 59.0 °F 44.6 °F 59% 30.12 in 10.0 mi SW 3.5 mph - N/A   Clear
1:53 AM 54.0 °F 46.9 °F 77% 30.12 in 10.0 mi SSW 3.5 mph - N/A   Clear
2:53 AM 52.0 °F 46.9 °F 83% 30.13 in 10.0 mi Calm Calm - N/A   Clear
3:53 AM 51.8 °F 46.4 °F 82% 30.12 in 10.0 mi Calm Calm - N/A   Clear
4:53 AM 50.0 °F 46.9 °F 89% 30.12 in 10.0 mi Calm Calm - N/A   Clear
5:53 AM 51.1 °F 46.0 °F 83% 30.14 in 10.0 mi Calm Calm - N/A   Clear
6:53 AM 55.9 °F 48.9 °F 77% 30.13 in 10.0 mi Calm Calm - N/A   Clear
7:53 AM 61.0 °F 51.1 °F 70% 30.14 in 10.0 mi South 4.6 mph - N/A   Clear
8:53 AM 66.0 °F 52.0 °F 60% 30.14 in 10.0 mi SSW 5.8 mph - N/A   Clear
9:53 AM 69.8 °F 51.8 °F 53% 30.13 in 10.0 mi SW 9.2 mph - N/A   Clear
10:53 AM 73.0 °F 50.0 °F 44% 30.11 in 10.0 mi SSW 11.5 mph - N/A   Clear
11:53 AM 75.0 °F 48.9 °F 40% 30.10 in 10.0 mi SSW 11.5 mph - N/A   Clear
12:53 PM 77.0 °F 50.0 °F 39% 30.09 in 10.0 mi South 11.5 mph - N/A   Clear
1:53 PM 77.0 °F 51.1 °F 40% 30.07 in 10.0 mi South 10.4 mph - N/A   Clear
2:53 PM 78.1 °F 51.1 °F 39% 30.06 in 10.0 mi South 11.5 mph 20.7 mph N/A   Clear
3:53 PM 79.0 °F 50.0 °F 36% 30.03 in 10.0 mi SSW 10.4 mph 19.6 mph N/A   Clear
4:53 PM 79.0 °F 48.0 °F 34% 30.02 in 10.0 mi SSW 11.5 mph - N/A   Clear
5:53 PM 79.0 °F 48.0 °F 34% 29.99 in 10.0 mi South 12.7 mph - N/A   Clear
6:53 PM 75.9 °F 54.0 °F 46% 29.99 in 10.0 mi SE 10.4 mph - N/A   Clear
7:53 PM 71.1 °F 52.0 °F 51% 29.99 in 10.0 mi SE 10.4 mph - N/A   Clear
8:53 PM 66.9 °F 52.0 °F 59% 29.99 in 10.0 mi South 6.9 mph - N/A   Clear
9:53 PM 66.0 °F 48.9 °F 54% 30.00 in 10.0 mi South 9.2 mph - N/A   Clear
10:53 PM 64.0 °F 48.9 °F 58% 30.00 in 10.0 mi South 8.1 mph - N/A   Clear
11:53 PM 62.1 °F 50.0 °F 65% 30.00 in 10.0 mi South 6.9 mph - N/A   Clear